Location: New Town
(33.2710°N, 90.7534°W)
Time: 13:23:02
(UTC+00:00)

Explorer 11/Cluster Stage 4 - Pass Details

Date: 20 May 2021
Orbit: 467 x 1257 km, 28.8° (Epoch: 14 June)

Event Time Altitude Azimuth Distance (km) Brightness Sun altitude
Rises 04:14:26 0° 273° (W) 4,113 10.7 -31.1°
Reaches altitude 10° 04:17:30 10° 265° (W) 3,195 9.9 -31.4°
Enters shadow 04:22:36 32° 233° (SW) 2,003 8.5 -31.9°
Maximum altitude 04:24:51 38° 202° (SSW) 1,827 - -32.1°
Drops below altitude 10° 04:32:03 10° 138° (SE) 3,123 - -32.8°
Sets 04:35:02 0° 130° (SE) 4,010 - -33.0°
